RH
63 66 69 73 74 64 50 51 56 51 49 51 43 28 21 30 37 31 27 27 24 29 32 43 75 91 90 94 70 36 47 69 64 59 53 45 44 42 39 42 39 33 29 26 23 20 18 17 16 16 15 16 23 32 37 39 40 41 43 42 34 22 15 16 21 24 26 28 31 34 33 26 20 17 13 8 5 6 10 15 18 21 20 17 15 14 16
87 84 82 79 74 60 39 41 61 66 51 38 31 26 25 30 35 35 37 35 27 27 33 50 80 95 98 104 82 45 46 65 68 64 57 48 45 44 44 47 47 43 36 29 25 22 19 18 17 18 18 20 27 34 37 40 43 45 44 38 28 19 17 21 24 26 29 33 36 37 33 26 21 18 13 7 6 8 13 19 21 21 19 16 13 12 17
99 97 96 88 72 50 28 26 41 46 37 34 40 44 41 35 33 36 39 34 25 28 38 55 79 94 95 97 84 52 41 57 69 65 57 54 50 48 50 53 49 44 38 31 27 22 19 20 20 20 22 26 31 35 38 42 47 47 42 34 27 23 23 25 25 26 29 34 38 37 33 27 23 19 13 7 6 10 16 21 23 22 19 16 13 14 19
97 92 94 95 81 54 32 27 32 34 38 48 57 57 50 42 37 37 36 30 27 38 52 60 74 89 97 99 92 67 43 48 67 69 59 56 54 51 54 53 46 41 38 34 28 24 23 25 24 23 28 34 37 38 43 49 51 46 40 36 33 31 29 27 25 26 27 31 35 34 30 27 24 19 14 8 7 13 20 25 26 23 19 15 13 13 18
88 84 90 91 77 54 39 34 35 43 50 48 42 38 34 32 32 31 31 32 38 49 58 62 68 82 95 100 102 91 61 43 54 65 61 57 55 54 54 51 45 44 44 38 30 27 29 29 28 28 33 40 43 44 50 52 49 45 42 41 38 35 33 30 27 26 27 27 30 30 27 25 24 21 14 8 10 19 26 28 26 21 18 16 16 16 17
89 86 92 91 73 56 52 48 38 38 44 41 34 32 33 33 33 34 38 46 53 54 52 56 62 72 86 95 101 103 84 56 46 51 54 55 55 53 51 48 48 52 50 39 31 31 32 32 32 33 37 42 45 48 52 49 45 45 46 42 37 37 37 33 28 27 27 26 28 29 27 25 23 21 15 9 14 26 31 29 25 21 19 18 18 18 17
95 89 86 87 79 70 73 78 68 54 49 50 51 49 48 50 50 49 49 54 57 50 43 46 52 58 71 86 97 103 91 65 49 48 49 51 52 52 49 48 54 59 51 40 36 34 34 37 39 38 39 43 45 48 50 48 44 45 43 37 33 36 37 33 28 26 25 25 27 29 28 27 24 22 16 11 18 30 34 30 26 24 22 25 30 32 28
93 93 91 92 85 70 62 66 66 58 52 53 52 46 44 49 53 49 44 43 45 41 33 34 40 45 56 72 88 98 92 74 61 58 54 50 50 50 49 52 60 62 53 44 40 38 40 45 45 41 40 41 44 48 50 48 43 38 32 28 26 30 33 32 29 26 23 23 24 27 29 28 25 22 16 13 22 34 37 32 25 23 26 34 44 46 40
96 99 101 101 95 84 73 67 65 63 62 58 51 43 44 50 49 44 42 44 44 39 32 29 31 34 43 58 74 88 93 87 81 77 71 60 53 50 52 57 63 62 56 52 48 45 45 47 46 47 49 48 49 53 54 50 43 34 26 22 21 24 28 30 29 25 22 21 22 26 30 28 25 23 17 16 25 35 36 31 26 26 29 30 35 40 43
101 100 101 102 101 100 99 95 88 86 86 85 76 66 64 65 53 40 42 49 49 43 38 33 30 30 30 37 51 70 80 77 74 80 83 71 57 53 55 60 63 62 59 57 55 52 48 46 44 45 50 55 58 59 58 51 43 37 32 26 24 25 26 28 29 25 22 22 22 25 29 28 25 23 18 18 27 36 35 29 27 29 29 30 36 49 63
101 100 101 103 101 100 101 98 94 93 96 101 99 86 75 69 54 36 34 43 43 41 43 40 36 34 28 25 40 68 80 66 51 57 69 66 59 56 56 60 63 63 59 56 55 52 48 46 42 37 43 56 61 59 59 55 46 42 36 28 30 36 33 28 28 27 24 24 24 25 29 30 27 22 19 19 25 34 31 25 26 27 26 34 49 65 80
102 100 100 103 102 100 102 100 98 98 99 100 101 96 88 83 68 42 26 29 30 30 35 39 37 36 36 40 61 86 93 75 53 41 41 45 52 56 56 57 61 60 56 52 50 48 45 42 39 37 45 59 64 63 64 59 48 40 33 30 43 56 47 30 25 27 26 25 25 27 29 29 27 23 20 18 21 27 26 22 24 23 21 33 52 67 82
102 100 101 103 101 99 101 100 100 101 99 99 99 99 98 97 86 57 32 31 37 32 27 29 30 33 37 46 67 88 95 91 80 59 41 36 43 52 54 53 56 56 53 50 49 46 43 40 41 47 55 66 72 70 63 54 46 41 35 39 58 67 53 33 23 22 23 25 26 28 30 30 28 25 22 19 19 24 24 20 21 22 24 35 50 64 78
99 99 99 100 98 99 100 100 101 101 100 100 100 100 99 101 99 80 55 49 57 53 40 27 22 31 41 43 52 68 79 89 94 88 77 66 60 60 55 47 49 52 49 49 49 46 45 43 43 52 64 72 76 70 59 54 55 49 39 44 66 76 60 36 22 19 22 26 26 27 30 31 28 25 23 20 18 23 27 23 18 21 27 34 48 67 83
87 88 94 98 96 97 100 99 99 100 100 100 99 100 99 99 102 94 69 51 50 51 50 40 27 33 48 48 44 48 58 76 91 95 97 93 83 74 62 49 48 50 48 49 49 46 47 44 42 54 71 79 83 80 75 74 69 56 42 42 63 85 74 42 26 26 26 25 26 29 32 33 29 26 24 20 18 23 26 21 17 20 22 22 33 57 79
81 81 92 101 96 94 99 101 100 100 100 99 100 101 99 99 102 89 62 41 32 30 39 45 40 42 51 52 46 42 49 68 79 74 77 88 89 83 74 62 53 45 40 44 48 48 48 44 44 58 70 75 79 78 73 70 61 50 46 48 64 91 89 54 34 37 34 27 27 33 34 33 31 28 24 19 18 20 19 18 20 21 21 28 43 59 76
93 91 94 97 94 95 99 99 99 101 100 100 101 99 98 102 99 75 45 30 23 19 27 39 41 42 45 49 52 49 48 57 60 49 50 65 72 70 71 74 72 61 45 37 40 46 48 44 47 61 67 69 72 69 62 60 54 48 57 68 78 94 95 69 46 42 40 33 32 36 39 38 34 29 25 21 19 17 16 17 19 21 30 53 76 82 81
95 99 99 92 87 91 96 97 99 101 99 100 102 98 94 96 91 71 51 38 26 18 19 26 29 30 33 40 51 53 47 45 45 39 38 44 45 46 53 64 75 80 70 50 39 40 45 47 50 57 61 62 64 64 61 57 52 51 65 84 92 95 95 87 71 58 51 43 36 35 38 41 39 34 27 22 18 16 16 17 22 32 49 71 88 84 75
80 85 93 93 83 81 86 92 98 102 101 100 101 99 93 88 86 81 72 56 40 30 26 23 20 20 25 33 43 49 47 43 40 36 33 37 45 51 53 54 62 77 86 76 59 45 41 44 50 55 58 58 60 66 63 53 51 63 76 86 89 81 71 67 64 63 67 70 62 48 37 35 37 35 30 24 19 15 15 17 23 32 42 58 74 74 66
70 66 75 88 88 84 84 85 87 95 101 101 101 102 97 90 89 92 87 73 58 47 38 30 22 19 23 32 39 44 47 48 47 42 39 50 67 75 72 68 68 75 84 87 81 68 55 47 45 47 51 52 52 56 57 55 64 80 80 72 67 60 51 49 50 54 65 75 74 64 50 38 35 33 31 27 22 17 17 23 35 47 53 64 76 77 72
76 71 69 78 90 97 98 91 84 90 99 100 97 97 99 99 97 96 97 91 76 56 39 31 28 27 30 37 42 45 46 49 51 49 49 63 81 83 75 72 75 78 83 88 94 96 88 77 66 59 59 59 56 58 65 73 81 81 68 57 54 51 50 53 52 51 54 57 60 63 61 52 45 41 39 35 26 21 21 27 40 58 71 81 87 84 79
85 80 69 67 72 80 83 80 79 89 99 100 96 93 96 102 101 96 97 99 94 81 65 52 43 37 36 40 43 42 44 48 50 48 49 59 71 71 63 64 76 88 93 95 98 101 100 98 94 88 87 87 86 87 92 93 86 73 61 57 55 50 47 48 46 46 48 48 51 58 63 64 60 55 51 44 31 24 26 34 45 57 70 81 86 80 68
85 86 82 76 67 60 60 64 73 84 89 90 95 98 97 99 101 100 98 94 92 93 90 82 70 53 40 43 50 51 51 52 49 43 44 49 55 56 51 52 68 89 98 99 101 102 100 99 100 100 101 101 98 96 94 87 75 65 57 51 46 43 42 42 41 41 43 48 55 61 68 75 77 68 60 51 38 28 32 41 50 57 63 68 68 60 50
87 95 99 90 74 59 54 58 70 81 83 82 90 99 99 97 100 102 99 93 91 92 93 96 94 77 52 46 56 62 63 61 53 42 40 43 45 46 44 40 54 82 100 101 97 95 94 92 90 88 86 85 80 76 72 65 57 50 45 40 37 36 36 37 40 46 54 63 71 75 76 82 82 72 62 55 48 45 46 44 44 49 55 56 52 47 45
79 95 101 91 76 63 58 58 64 75 83 84 88 95 99 99 101 100 97 96 96 96 95 94 94 86 67 57 64 72 71 69 63 53 47 45 41 39 38 34 40 64 88 95 91 87 81 76 72 68 63 59 57 53 50 47 43 39 36 34 31 30 32 33 37 48 62 73 83 89 90 87 82 74 67 65 66 68 66 57 52 54 56 51 47 46 47
85 95 100 92 78 66 59 60 65 76 87 90 89 92 97 100 100 100 100 99 98 99 100 97 94 93 86 78 81 86 81 74 74 71 63 56 51 46 44 42 38 43 53 63 71 78 75 66 61 58 54 48 46 44 42 41 40 37 35 32 28 27 29 28 29 40 51 58 72 88 94 91 85 77 73 77 83 83 77 68 62 60 56 50 50 51 51
97 98 95 91 91 87 72 57 55 68 85 90 87 92 99 101 99 99 100 101 99 98 100 100 99 100 99 93 91 91 82 73 75 77 72 65 60 55 52 52 49 44 41 40 45 54 60 60 58 55 51 47 45 43 40 39 38 35 31 29 27 26 28 27 27 30 31 38 60 84 91 88 84 79 77 84 91 89 81 72 64 59 56 54 55 55 54
86 92 86 76 82 93 89 70 55 59 74 81 82 88 96 96 92 92 95 99 101 99 99 101 100 97 99 98 93 86 78 71 73 81 86 85 79 72 68 67 67 65 60 53 46 42 42 44 45 41 38 36 36 36 36 35 33 30 27 26 24 22 27 33 35 33 33 45 72 94 95 86 81 79 80 85 86 80 73 69 63 60 58 58 57 58 58
66 68 67 60 59 70 81 78 67 62 67 71 73 80 86 87 85 85 87 94 99 98 98 101 98 92 91 93 90 86 84 83 84 91 99 100 97 95 92 87 83 77 70 63 57 49 43 40 36 31 28 25 25 27 29 26 24 24 25 25 23 21 29 44 54 60 67 77 89 97 95 87 82 83 86 86 83 76 71 67 63 61 60 59 60 60 60
82 69 63 61 59 65 77 83 78 71 67 64 65 69 73 76 78 78 79 83 89 92 94 97 97 93 92 91 89 90 94 95 95 97 100 100 100 101 97 90 82 73 64 59 57 52 46 41 37 33 32 30 30 32 31 31 37 42 37 31 32 35 44 57 69 77 87 95 97 97 92 83 80 88 94 89 81 76 71 65 61 61 61 61 62 63 64
101 91 81 71 61 61 73 82 81 76 70 64 63 65 66 67 72 77 81 82 81 81 86 91 94 95 95 94 94 96 98 99 98 99 99 99 100 100 93 84 77 69 62 60 61 57 51 46 43 42 43 42 42 43 41 45 56 58 48 48 60 66 66 72 82 86 91 96 95 89 81 73 73 81 86 81 75 72 68 64 63 64 65 66 67 69 71
100 97 92 81 63 55 64 76 80 76 71 66 66 67 66 66 71 78 86 88 81 75 75 80 86 93 96 97 97 98 100 100 100 99 98 99 101 100 94 86 80 74 67 63 61 60 58 55 53 57 63 65 63 62 61 63 70 71 66 74 91 93 84 85 93 91 85 83 81 75 70 69 71 74 74 73 72 70 68 66 67 69 70 71 73 75 79
103 100 97 91 77 62 62 71 76 73 69 67 67 66 67 73 83 92 96 92 82 72 66 66 72 81 89 92 95 97 99 99 99 99 98 97 97 97 96 92 89 85 78 69 65 67 72 74 73 74 78 82 83 84 84 84 86 89 89 94 101 100 92 90 90 83 72 70 73 74 74 74 74 73 74 74 75 74 73 73 74 74 76 79 82 86 90
102 99 98 99 96 86 77 75 74 69 64 64 67 67 66 71 82 91 93 88 80 73 67 61 60 64 70 75 82 89 95 97 98 97 96 94 93 93 93 91 89 86 81 75 72 73 79 87 90 87 85 85 87 92 96 96 96 99 101 101 102 101 95 87 80 73 69 70 72 74 75 75 74 74 76 77 78 78 78 79 81 83 87 90 91 91 90
104 104 99 96 94 93 91 87 81 72 62 59 63 68 70 70 72 76 79 80 77 75 72 67 62 60 60 63 67 74 83 93 97 97 96 94 92 92 93 91 88 84 78 73 72 72 75 81 87 87 87 87 85 84 86 90 93 94 92 91 94 99 98 92 85 79 76 78 78 77 77 78 79 82 85 87 88 88 90 92 94 95 94 90 85 80 76
90 97 99 95 90 91 94 95 93 84 71 62 60 64 71 78 81 80 79 77 74 75 79 77 70 63 61 61 62 64 68 77 87 93 94 92 89 88 89 89 88 85 80 74 72 72 73 77 80 82 83 85 82 77 74 74 76 77 75 70 68 71 76 80 83 83 83 85 88 89 90 93 95 95 96 95 93 93 92 90 89 86 82 78 73 69 66
81 81 85 88 90 93 97 98 97 93 84 75 69 68 75 87 94 92 87 83 81 84 87 85 78 70 63 60 61 62 61 63 70 78 83 85 83 83 84 85 87 87 84 80 76 74 72 72 73 75 76 75 73 71 70 67 67 72 74 67 58 57 64 70 76 83 88 91 94 97 99 98 96 93 90 86 83 80 78 77 79 83 84 80 75 69 64
72 71 72 77 82 89 94 96 95 93 89 86 84 82 85 93 100 100 96 92 92 95 95 89 81 75 67 59 57 61 63 63 63 65 69 73 74 74 76 80 82 83 81 77 74 72 70 67 65 66 68 68 66 64 65 64 63 67 71 67 62 68 79 82 80 81 85 88 89 90 89 86 83 79 76 75 73 72 71 73 78 82 82 78 74 72 68
49 50 54 62 73 82 88 91 93 92 89 88 90 92 92 94 99 103 102 99 98 100 100 93 85 78 72 64 59 60 64 67 67 65 64 64 65 66 67 69 71 73 72 70 67 66 66 64 61 58 58 59 60 59 58 58 57 58 60 60 60 66 76 81 80 81 84 85 84 82 80 78 76 74 74 75 75 74 75 76 77 79 80 81 82 80 74
46 44 43 48 59 71 82 90 96 95 89 84 85 88 91 91 93 97 101 102 101 100 99 98 93 87 81 76 70 66 65 66 68 67 65 62 61 61 61 62 61 61 60 61 62 64 63 62 60 56 52 51 51 50 48 46 45 44 45 47 48 49 54 59 63 66 70 73 74 74 74 74 75 75 76 76 77 78 81 85 87 89 91 90 85 77 68
53 56 54 53 54 58 66 78 89 94 92 85 80 80 83 86 88 91 95 99 101 101 100 99 96 91 87 84 81 76 71 67 65 66 67 66 62 58 56 56 56 55 53 53 55 56 55 54 53 53 51 49 47 45 42 41 40 39 39 40 41 40 41 43 45 48 50 52 54 54 54 55 58 62 64 67 70 74 78 83 86 87 85 79 72 65 61
54 57 60 64 67 67 67 70 74 79 83 82 79 77 77 80 87 95 98 95 92 94 95 94 90 86 82 80 79 78 76 72 67 63 62 63 63 60 55 52 49 48 48 48 47 45 45 45 46 49 52 53 52 49 46 46 47 46 45 45 44 41 39 39 39 40 42 43 44 44 44 44 46 50 55 60 63 64 65 67 68 68 66 62 59 58 60
55 58 60 64 71 78 82 80 76 73 74 74 74 74 73 72 79 93 101 100 94 92 92 90 87 83 80 77 74 73 73 74 73 68 62 59 58 58 57 55 51 47 44 43 42 41 40 41 41 44 49 53 54 52 50 48 49 51 52 52 50 46 43 41 40 39 38 38 38 37 38 41 45 49 53 57 59 58 58 59 60 59 59 58 59 60 62
52 63 70 72 73 77 83 87 87 85 83 79 75 73 72 71 76 86 97 102 100 97 94 92 89 86 84 83 80 75 70 68 69 70 68 63 59 57 56 56 55 53 51 49 47 45 43 42 42 43 44 46 47 47 47 47 48 52 56 58 58 55 53 50 45 41 42 46 49 47 44 45 48 50 53 56 59 59 59 60 61 61 60 60 59 58 57
42 53 67 78 82 83 85 88 91 93 94 92 87 82 79 79 81 86 92 95 94 91 91 92 90 87 84 83 82 79 75 69 64 63 64 64 64 63 60 58 56 55 54 53 54 53 52 50 48 48 48 47 46 45 45 46 47 51 56 61 64 66 66 62 57 52 54 62 71 73 67 61 58 57 58 60 63 63 63 63 63 61 59 55 52 49 47
34 38 48 63 77 87 92 94 93 93 95 97 97 95 93 92 91 91 94 96 95 90 86 85 82 78 77 77 76 75 75 73 68 63 60 59 60 62 62 62 62 60 58 56 56 57 59 61 61 60 60 60 60 59 58 58 58 59 62 67 72 76 76 73 70 68 69 73 80 85 85 81 75 72 70 69 68 67 65 62 58 55 51 47 44 42 41
33 34 36 43 56 71 84 94 97 96 95 95 95 95 96 97 96 95 96 99 101 98 94 90 84 77 73 70 67 67 69 70 70 67 63 59 56 55 56 57 60 63 65 65 65 64 63 64 67 69 70 71 71 71 71 71 71 72 72 75 81 87 89 86 82 79 76 73 73 78 85 90 87 83 79 76 71 65 60 56 53 50 47 45 44 42 41
33 35 35 37 42 52 66 83 96 101 99 94 91 88 88 90 93 95 97 99 100 100 101 100 95 87 79 73 67 64 64 66 67 68 67 64 60 56 53 51 52 55 59 65 70 73 73 72 72 73 74 74 72 71 70 70 72 75 80 84 88 91 94 94 92 89 86 82 78 78 83 90 91 87 82 77 70 63 58 54 50 48 45 43 41 40 39
31 34 36 38 40 43 51 65 83 98 102 98 91 87 85 84 84 88 94 99 100 99 100 101 99 94 89 85 80 74 68 64 64 66 68 68 67 63 60 56 54 53 54 56 61 67 72 75 76 75 74 73 71 69 67 65 64 67 74 82 90 94 96 98 100 100 99 98 95 91 89 89 88 84 79 72 65 58 53 48 44 42 40 39 38 37 37
26 31 35 38 41 43 45 52 65 82 96 100 96 90 86 82 81 84 90 96 99 100 100 100 100 98 96 95 94 91 84 76 71 68 67 69 71 72 70 67 65 62 59 58 58 59 62 66 69 71 73 73 71 69 66 65 63 62 62 66 71 77 83 88 91 93 94 94 93 91 88 83 79 74 68 61 55 50 45 42 40 39 38 37 36 35 34
18 25 33 39 42 43 44 46 52 62 77 89 95 94 88 83 82 84 89 93 96 99 101 101 100 100 100 99 99 97 94 89 83 79 77 76 76 76 76 75 73 69 64 59 56 53 51 51 52 55 60 65 67 66 63 62 61 61 61 60 59 60 61 63 66 68 70 71 72 71 70 67 64 60 56 52 49 46 44 41 39 36 33 30 29 27 24
12 19 29 39 45 48 48 47 48 52 62 75 87 92 90 86 83 85 90 93 95 99 102 102 100 99 101 101 98 96 95 92 89 87 86 85 83 83 82 79 76 72 68 62 56 49 43 39 37 35 36 41 48 52 53 53 51 51 51 51 51 51 51 51 52 52 52 51 50 49 49 50 50 49 48 47 46 43 38 34 30 26 22 19 17 15 14
Wind_Speed
8 7 7 8 8 6 10 15 20 22 24 27 27 28 30 34 35 29 24 32 35 26 26 31 34 35 38 37 39 43 46 49 49 49 50 50 50 47 43 42 41 41 43 44 42 41 40 39 38 38 41 41 39 36 36 37 36 36 37 40 40 38 32 29 28 28 29 30 29 29 29 28 28 28 28 27 26 26 26 27 27 27 28 28 29 29 30
10 8 9 11 11 7 5 8 12 16 17 20 22 24 28 32 32 29 29 37 37 26 26 31 34 36 39 39 40 42 46 51 52 50 51 50 49 47 44 43 42 42 44 43 41 39 38 39 39 41 42 41 38 36 36 35 35 36 38 39 36 32 29 28 28 28 30 30 29 29 29 29 29 29 29 28 27 27 27 28 28 28 28 28 29 30 30
15 14 12 11 11 8 4 3 7 11 13 16 18 19 23 28 31 30 32 35 31 24 25 30 33 35 36 38 41 42 44 52 54 53 52 51 50 49 47 46 45 44 43 40 38 38 38 39 41 42 40 38 36 36 35 34 35 37 38 35 32 29 28 28 29 29 29 29 29 29 30 30 30 30 30 30 29 28 28 29 29 29 28 28 29 31 31
18 17 16 10 7 7 4 4 7 9 12 15 16 16 20 25 29 30 31 30 25 20 23 30 34 34 33 34 39 41 43 51 56 55 53 52 52 52 51 50 48 44 41 39 39 39 40 41 42 40 38 36 36 36 35 35 37 38 36 33 30 29 29 29 30 29 28 28 29 30 31 31 31 31 31 31 30 29 29 30 30 30 28 29 31 32 31
14 15 17 11 5 4 1 4 7 9 12 14 13 13 16 21 25 27 26 25 22 22 26 30 33 35 34 31 34 38 40 46 53 56 53 51 53 55 55 53 49 44 42 42 42 43 43 42 40 38 38 37 38 37 35 37 41 39 35 33 32 31 30 31 31 30 28 28 28 30 32 32 32 32 32 32 31 31 31 31 31 29 29 30 32 33 31
9 11 15 10 4 3 2 3 6 8 11 12 12 12 13 17 22 24 24 24 24 24 26 29 32 35 35 32 32 35 36 38 44 51 52 51 53 56 56 54 49 45 45 45 45 45 44 42 39 38 38 39 39 39 40 42 43 40 37 36 34 33 33 32 32 31 29 27 28 30 32 34 34 33 33 33 32 32 33 33 31 30 30 31 32 32 31
10 8 8 5 1 1 4 6 7 9 11 12 13 13 13 17 21 23 24 25 24 23 24 29 34 35 36 35 33 34 36 35 35 40 47 52 54 54 54 53 49 46 47 47 47 46 44 42 40 38 39 40 41 42 43 44 42 40 40 39 37 36 36 34 33 31 29 28 29 31 33 35 35 34 34 34 33 34 35 34 32 31 31 32 32 32 31
14 10 7 4 2 5 6 7 9 11 12 13 14 14 13 16 19 22 23 23 23 24 24 28 34 37 38 38 37 37 38 38 36 36 40 47 53 53 52 53 49 47 49 49 47 46 44 42 40 38 39 41 42 42 43 44 43 43 42 40 39 38 38 37 34 32 30 29 30 31 34 36 36 35 35 34 34 36 36 35 34 32 32 33 32 32 32
18 17 13 8 5 6 8 9 11 13 14 16 17 15 14 17 20 20 20 20 21 23 24 26 32 37 39 39 38 37 36 37 38 38 38 42 50 53 53 53 51 49 50 49 47 46 45 42 40 39 38 40 42 42 43 45 46 45 41 38 38 40 40 39 37 34 32 32 32 33 35 37 37 36 36 36 36 38 38 36 35 34 34 34 34 35 34
21 21 19 14 8 5 6 7 9 12 13 15 18 17 15 18 22 21 18 18 19 21 23 25 28 33 38 38 36 33 33 35 37 39 39 40 47 53 54 54 54 52 51 50 48 46 45 44 43 42 40 40 43 43 45 47 49 47 42 39 39 41 40 40 39 37 35 35 34 34 36 38 38 38 38 38 39 40 39 37 36 36 35 35 36 38 38
23 24 23 20 15 13 15 16 15 15 15 12 14 17 15 16 21 21 19 18 18 19 21 23 26 30 34 34 31 29 31 35 38 40 40 39 44 52 56 56 56 56 54 51 48 47 46 46 45 44 42 42 44 45 47 50 52 50 45 41 41 41 41 42 42 40 39 38 37 36 37 38 39 40 40 41 42 42 40 38 36 36 36 37 38 39 39
25 26 26 24 23 23 25 25 26 25 22 16 13 14 14 14 18 23 23 22 21 21 20 20 22 26 29 29 30 30 30 33 38 42 42 41 42 49 57 58 58 58 56 53 51 49 48 46 45 44 43 45 47 48 51 54 54 50 45 42 41 41 41 44 45 43 42 41 39 38 38 39 41 42 43 44 44 43 40 37 36 35 35 37 39 39 40
23 24 24 23 25 26 27 27 27 25 22 19 16 18 19 17 16 21 25 24 24 23 22 20 18 20 24 26 29 30 28 28 32 36 40 42 41 45 53 59 61 61 60 57 55 54 50 47 46 44 44 46 49 50 53 54 52 48 45 43 44 43 42 44 47 46 45 44 42 39 39 41 42 43 44 45 44 42 39 37 36 35 35 37 40 41 41
19 19 20 21 22 22 24 25 23 23 24 22 19 21 22 17 10 14 21 24 23 22 23 23 20 18 17 19 22 26 25 24 25 27 31 36 37 38 44 52 58 62 64 62 59 58 56 52 49 47 47 49 51 52 54 53 51 49 48 47 46 44 43 44 46 47 47 46 44 41 41 42 43 43 44 45 43 42 40 37 35 35 35 37 40 42 41
18 17 20 24 23 21 23 24 22 23 25 22 20 21 19 11 8 13 18 22 24 23 22 21 20 17 13 13 16 21 23 23 23 23 25 29 33 34 36 42 48 56 64 67 66 63 60 58 55 53 51 51 52 53 53 51 49 51 52 50 48 46 45 45 46 46 47 47 44 43 42 41 42 43 45 44 43 42 41 38 35 34 34 37 40 41 40
18 17 18 22 24 22 22 24 26 27 25 21 20 20 16 10 11 13 14 16 20 23 22 19 18 15 12 12 14 17 20 22 22 20 22 27 31 31 31 35 39 45 56 65 68 67 65 62 60 56 54 53 53 53 52 50 51 53 53 51 50 49 47 47 46 45 46 47 46 44 42 41 42 44 44 44 43 43 41 38 36 34 34 37 39 40 40
18 19 18 19 21 20 20 23 27 28 24 20 19 16 12 10 11 10 10 10 12 17 19 18 17 15 12 12 14 14 17 20 20 18 19 23 27 25 24 27 30 36 46 56 62 66 66 64 61 58 56 56 57 56 54 54 55 56 54 51 50 49 45 44 44 43 45 47 46 44 41 41 43 44 43 43 43 43 41 39 36 34 34 35 36 36 36
14 17 20 20 19 17 17 21 26 26 23 19 16 12 8 7 7 7 8 9 10 14 17 18 18 16 14 14 13 13 15 18 19 20 19 20 21 20 19 21 23 27 35 44 53 60 63 63 62 60 58 59 59 59 58 57 58 58 54 49 49 48 43 38 36 39 42 43 44 44 43 42 42 42 42 43 43 41 40 39 36 34 33 33 33 32 32
15 14 17 20 20 18 17 19 23 24 22 19 16 12 7 5 6 6 8 10 11 13 16 18 18 17 16 16 14 13 14 16 19 21 21 20 19 17 16 19 22 25 28 34 43 52 58 60 62 61 60 60 60 58 58 59 58 56 53 51 50 47 43 38 37 38 38 38 39 41 42 41 41 41 42 43 41 39 39 38 36 35 34 33 32 32 31
19 17 15 18 21 21 20 20 21 22 21 20 18 14 8 6 7 8 9 10 11 14 16 16 15 16 16 16 15 13 13 16 19 20 19 19 17 15 15 19 23 26 28 30 34 41 49 54 58 60 61 62 62 61 60 59 57 53 51 50 48 44 41 40 40 40 38 36 34 35 38 40 41 42 42 42 40 38 38 37 36 35 34 31 31 32 31
19 19 16 15 14 15 17 19 21 21 21 21 19 14 11 9 5 4 5 3 4 10 13 12 13 15 16 16 16 14 14 17 19 18 19 19 18 15 17 22 25 26 27 29 31 36 41 47 52 57 60 62 63 62 59 57 53 49 47 45 43 40 39 40 41 41 41 38 35 34 36 39 42 44 44 41 40 39 37 36 36 35 33 31 30 30 28
17 18 17 15 12 10 11 14 17 18 20 21 18 13 11 12 8 3 1 1 3 4 11 13 14 15 16 17 17 16 16 18 19 18 19 21 21 20 21 24 24 23 25 29 32 35 36 39 45 49 51 53 54 53 51 49 47 44 42 40 37 37 37 39 41 42 43 42 40 38 38 40 43 45 44 42 41 40 38 37 36 34 32 32 30 28 26
17 18 18 18 16 13 11 12 15 17 18 19 16 13 13 13 8 6 5 2 2 2 6 11 14 16 18 17 16 17 17 18 20 20 20 22 23 23 24 24 22 22 27 32 34 33 31 33 35 37 37 38 39 39 40 40 39 37 36 34 34 35 36 38 40 41 43 43 42 42 42 42 43 45 44 43 41 40 38 38 36 32 30 30 29 28 28
15 18 20 20 19 16 13 12 13 15 16 17 15 13 17 17 11 7 8 7 3 0 3 7 10 14 17 17 16 16 16 17 19 21 22 23 24 25 26 24 21 22 29 33 31 28 27 27 27 27 28 30 31 32 33 34 33 32 32 33 34 36 37 38 38 39 40 41 42 44 45 44 43 44 43 41 39 37 36 35 33 30 29 29 29 30 30
13 16 20 21 20 17 14 13 13 13 14 16 14 13 16 18 13 8 9 9 5 2 1 5 8 10 13 16 15 14 14 16 18 19 19 21 22 24 25 23 21 21 26 29 28 25 25 25 24 23 24 25 27 29 30 31 31 32 33 34 35 36 37 38 40 41 40 39 41 43 44 44 44 42 40 38 35 34 34 32 30 29 30 31 31 32 32
15 17 18 19 20 17 14 13 13 11 12 14 14 12 14 15 13 10 10 9 5 2 2 3 5 7 10 14 15 15 16 17 17 17 16 16 17 18 20 20 20 21 23 25 26 27 27 26 25 24 24 24 26 27 28 30 32 34 35 36 37 38 39 39 42 44 42 41 41 40 40 42 42 40 37 35 34 34 33 31 30 30 31 32 32 33 33
18 19 17 16 17 17 16 15 13 10 11 12 11 10 12 13 12 11 9 8 5 4 5 5 4 4 7 10 14 18 19 17 15 14 13 13 14 15 16 17 17 18 20 21 23 25 27 27 26 25 24 25 27 29 31 33 34 36 38 39 39 40 40 40 42 44 44 44 43 40 38 37 37 36 34 33 33 33 33 31 30 31 32 32 33 33 34
21 22 20 17 15 15 16 17 15 12 11 11 10 10 11 11 11 10 8 7 6 4 3 3 3 2 3 5 10 16 17 16 14 12 10 10 11 12 13 13 14 14 16 18 20 22 24 25 26 26 26 27 28 31 33 35 37 38 39 41 42 41 41 41 42 44 45 45 43 41 37 34 33 33 33 33 33 33 33 32 32 32 32 32 34 35 36
24 24 23 20 19 16 16 17 17 16 14 12 11 11 11 11 11 10 9 7 6 4 3 4 4 2 0 3 8 12 14 15 14 12 12 12 12 12 12 13 13 15 16 17 19 20 22 23 25 27 28 29 30 32 35 37 39 38 38 39 41 41 40 38 37 37 39 42 43 42 39 35 33 32 32 32 32 33 33 32 32 32 33 34 36 37 39
20 22 21 20 20 19 16 16 16 17 16 14 13 12 11 11 12 12 10 8 8 7 5 3 2 3 2 2 6 10 14 16 16 16 15 15 15 15 14 14 15 17 18 18 19 20 21 23 24 25 27 28 30 31 34 35 34 33 33 34 36 38 38 37 35 34 36 40 44 43 39 35 32 32 31 31 32 32 33 32 33 34 35 37 39 40 42
17 18 19 19 20 19 18 16 15 17 17 15 13 13 12 12 12 13 12 10 9 8 6 5 5 5 4 3 3 7 11 14 16 18 18 18 17 17 17 16 16 17 18 18 19 18 19 21 21 22 24 25 25 27 29 29 27 26 26 27 31 35 36 35 34 34 36 38 39 38 36 34 33 33 32 32 32 32 33 33 35 37 39 41 42 43 43
17 17 18 19 20 20 20 18 16 16 17 17 15 14 13 12 12 12 12 11 10 9 8 7 7 6 5 4 4 4 5 8 11 13 15 17 18 18 17 17 16 15 16 16 16 16 17 18 19 18 19 19 19 22 24 23 24 26 26 27 31 35 35 32 32 33 33 33 33 32 33 34 34 33 33 33 33 34 36 37 39 41 42 43 43 44 44
16 15 16 17 18 19 20 19 17 15 16 18 18 16 14 11 11 12 12 12 12 12 11 9 9 9 8 7 7 6 5 6 7 9 11 13 15 16 17 17 16 14 13 14 14 15 16 17 17 16 16 15 15 17 20 20 21 24 27 30 34 33 30 29 29 29 28 29 31 33 34 35 35 34 35 35 36 37 39 40 42 43 44 44 45 46 46
21 19 17 16 16 17 19 20 19 17 17 18 18 18 17 14 14 15 15 14 13 13 13 11 11 11 11 10 9 9 8 8 7 8 9 10 12 14 16 17 17 16 15 15 15 16 16 16 16 16 16 15 14 14 17 19 21 21 21 23 25 24 23 24 25 25 25 28 31 33 35 35 35 36 36 37 38 39 40 42 43 44 44 44 45 44 43
26 26 24 21 18 16 17 19 19 18 18 18 19 19 19 19 19 19 18 17 15 15 15 14 13 13 13 12 12 11 11 10 10 9 9 9 9 11 13 15 17 17 17 17 17 18 18 18 18 18 17 16 15 15 15 17 18 17 16 15 16 17 19 21 22 23 25 28 30 32 33 34 34 35 36 37 39 40 41 42 42 42 42 42 42 42 41
28 29 29 27 23 19 17 18 19 19 18 18 20 20 20 19 19 19 19 18 17 16 16 16 16 15 15 14 14 13 13 13 13 12 11 11 10 10 11 12 14 16 17 17 18 18 18 19 20 21 20 18 17 17 17 16 16 16 16 16 16 17 19 21 23 24 26 28 30 32 33 33 34 35 37 38 39 39 39 40 39 39 40 40 41 40 40
31 31 31 31 29 26 22 20 20 20 19 19 19 20 21 21 20 20 20 20 19 17 17 17 17 17 17 17 16 16 15 15 15 15 15 14 13 13 12 12 13 13 14 15 15 16 16 17 18 20 20 19 18 18 18 18 18 18 18 17 17 17 20 23 26 27 28 29 30 31 32 33 34 35 36 37 38 38 38 39 39 39 40 40 39 39 38
36 35 34 33 33 32 29 24 22 21 21 20 18 18 19 20 21 21 21 21 19 19 18 18 18 19 20 19 19 18 17 17 17 18 18 18 17 16 15 15 15 15 14 14 14 14 15 15 17 18 19 19 19 19 19 19 20 21 21 20 19 19 22 24 27 28 29 30 31 32 33 34 35 36 36 37 37 38 38 39 40 40 40 39 39 38 37
36 37 37 36 35 34 33 29 25 23 22 22 21 19 19 21 22 22 21 21 20 19 20 20 20 20 21 21 21 21 20 20 19 19 20 20 21 20 19 19 18 18 18 17 17 16 16 16 17 17 18 18 19 19 20 21 21 22 22 22 22 23 24 25 27 29 30 31 32 33 34 35 36 37 37 38 38 39 39 39 40 40 40 39 38 37 37
32 34 35 36 36 36 35 33 29 26 25 25 24 22 21 22 23 23 23 22 21 21 21 21 20 20 21 22 22 23 23 22 22 21 21 22 22 23 23 22 22 22 21 21 20 20 20 19 19 19 18 19 19 19 19 20 21 22 23 24 24 25 26 26 27 28 30 30 31 32 33 34 35 36 36 37 37 38 38 38 38 39 38 37 37 37 37
30 31 32 33 34 36 36 35 34 32 30 28 27 26 24 23 23 24 25 26 25 24 23 22 21 20 21 21 22 23 23 24 24 23 23 22 23 24 25 25 25 25 25 25 25 24 24 24 23 22 21 21 21 20 20 20 21 22 23 23 25 26 27 27 28 29 29 30 31 31 32 32 34 34 35 36 36 36 36 36 37 36 36 36 36 36 36
31 31 32 31 32 33 33 34 35 35 34 33 32 30 29 27 25 23 23 25 26 27 26 25 23 21 21 22 22 23 23 24 25 25 25 24 23 24 25 26 27 28 28 28 28 28 27 27 27 26 25 24 23 23 22 22 22 22 23 23 24 25 27 28 29 29 30 31 32 32 33 33 34 35 35 35 36 36 36 36 36 36 35 36 36 36 36
31 31 32 32 32 32 32 31 32 32 33 34 35 34 33 32 29 25 22 23 24 25 26 26 25 24 22 22 22 23 24 24 25 26 26 26 26 25 25 25 26 27 28 29 29 29 29 29 29 29 29 28 27 26 25 25 24 24 24 25 25 26 27 27 28 29 30 32 33 34 35 36 36 36 36 36 36 36 36 36 36 36 36 36 35 35 34
30 31 32 32 33 34 33 32 30 30 30 31 33 34 35 34 32 30 28 28 27 26 25 25 26 25 24 23 22 22 23 24 24 25 26 27 27 27 27 26 25 26 26 27 28 29 29 30 30 30 31 31 30 30 29 28 28 27 27 27 28 28 28 28 28 29 30 32 34 35 36 37 37 36 36 36 36 36 36 36 36 35 35 35 35 34 34
33 32 32 32 33 34 34 34 32 30 30 29 30 31 33 34 33 32 31 32 32 32 30 28 26 26 25 24 23 23 22 22 23 24 25 26 27 27 28 28 27 26 26 26 26 27 28 29 29 30 30 30 31 31 31 30 30 30 30 30 30 30 30 30 30 29 29 30 32 32 33 34 34 34 35 35 35 35 35 35 35 35 35 35 34 34 34
37 37 36 35 34 34 35 35 34 32 32 31 29 29 30 32 33 34 32 30 31 33 34 33 32 31 30 28 27 26 25 24 23 23 24 24 25 26 27 28 28 28 28 27 27 26 26 27 27 28 28 28 29 29 30 30 30 31 31 32 32 32 32 32 31 30 30 31 32 32 32 32 33 33 34 34 34 34 34 34 35 35 34 34 34 34 34
39 39 39 38 36 35 35 36 35 35 34 33 32 31 30 29 31 33 33 30 27 28 31 33 33 33 34 33 32 30 28 27 26 25 25 24 25 25 26 27 28 28 29 29 29 28 27 27 27 27 27 27 27 27 28 28 29 30 31 32 32 32 32 33 33 33 33 34 34 34 33 33 33 34 34 34 34 34 34 34 34 34 34 34 34 35 35
40 40 40 39 38 37 36 36 37 36 36 35 35 35 34 31 30 31 33 31 27 24 26 29 31 31 32 34 35 34 33 32 30 28 27 26 26 26 26 27 27 28 29 30 30 30 29 29 28 28 28 27 28 28 28 28 28 29 29 31 32 32 33 34 34 35 36 36 36 36 35 34 34 34 34 35 35 35 35 35 34 35 35 35 35 36 36
40 40 40 39 37 36 36 37 37 37 37 36 36 37 37 36 34 32 32 33 32 29 27 27 29 30 30 31 33 34 35 35 34 32 29 28 27 26 26 26 27 27 28 29 30 30 30 30 30 30 29 29 29 29 29 29 29 29 29 30 31 32 32 33 34 35 36 37 37 37 37 37 36 35 35 35 36 36 36 36 36 36 36 36 37 37 37
40 40 40 39 38 37 36 35 37 38 38 37 36 36 37 38 38 36 34 34 36 34 29 26 27 28 28 28 30 31 32 34 34 34 32 30 28 26 25 24 24 24 25 26 27 28 29 29 29 30 30 30 30 30 30 30 31 30 30 31 31 31 32 32 33 34 34 35 36 36 37 38 38 37 36 36 36 36 36 36 36 36 36 36 37 37 37
41 40 39 38 38 37 36 35 35 37 38 38 37 36 36 37 38 39 37 36 36 34 29 26 27 28 29 28 28 29 29 30 32 32 32 31 30 28 26 25 23 23 23 23 24 24 25 26 26 27 28 29 29 30 30 30 31 31 32 32 32 32 33 33 33 33 34 34 35 35 35 36 36 37 36 36 36 37 37 37 36 35 35 36 37 37 37
40 40 39 38 37 36 36 35 34 35 36 37 37 37 36 36 38 39 39 39 39 37 34 32 31 30 30 29 28 28 27 28 29 29 30 31 30 29 28 28 27 25 24 24 23 23 23 23 23 24 25 26 27 28 29 29 30 30 30 31 31 32 33 33 34 34 34 34 34 34 34 35 35 36 37 37 37 37 37 36 36 36 36 36 36 37 37
Wind_Direction
347 342 337 336 331 287 241 232 232 233 235 235 234 232 227 226 231 229 218 226 229 210 198 207 208 211 215 216 222 223 216 211 211 211 212 211 209 208 206 205 208 211 214 215 215 218 221 222 222 220 217 214 209 207 210 215 221 227 233 237 240 241 239 236 236 239 241 243 242 240 238 238 242 247 252 254 253 253 257 261 263 265 265 266 268 268 268
347 347 336 328 330 319 269 244 233 231 232 231 230 230 227 228 232 231 230 236 234 215 201 205 210 216 216 215 222 223 216 211 210 211 210 207 204 203 202 202 204 207 211 214 215 217 217 218 217 215 213 210 207 208 212 216 222 228 234 237 237 235 233 232 235 238 241 242 240 238 237 238 242 246 250 252 251 252 255 259 261 264 265 267 270 269 267
16 11 2 339 320 314 301 251 229 222 220 220 224 232 235 236 236 238 242 239 227 210 205 208 214 220 219 217 221 223 218 213 211 211 210 205 200 200 202 202 203 207 213 215 214 213 212 211 210 208 208 207 208 211 213 217 224 230 232 232 231 230 230 232 235 238 240 241 239 236 236 238 241 245 249 250 250 251 254 257 260 263 265 268 269 267 266
36 26 20 8 307 296 304 269 248 234 233 237 239 240 238 239 241 244 243 232 214 206 216 220 220 222 223 219 218 222 221 215 212 212 210 205 202 201 203 203 203 209 214 210 205 205 206 208 208 207 207 206 208 211 214 219 225 227 226 226 227 228 229 231 234 237 239 240 237 235 237 239 242 245 248 249 249 250 253 256 259 262 266 268 267 266 265
44 37 31 24 325 300 300 265 259 248 249 253 252 243 237 241 246 243 236 228 222 221 224 224 223 222 223 219 215 219 222 218 215 214 212 209 205 204 205 206 206 209 210 204 200 202 207 210 211 210 207 206 208 210 214 221 224 223 222 225 227 228 229 231 234 235 237 238 237 236 238 241 243 245 248 249 249 250 252 255 258 262 266 267 266 266 265
40 45 44 39 8 357 11 299 271 251 248 249 245 235 229 236 243 241 237 238 240 234 223 222 224 222 221 221 219 218 222 222 220 219 217 215 209 207 208 207 205 205 205 203 201 203 208 212 213 212 209 209 210 211 216 221 221 220 223 226 227 228 228 229 232 233 234 236 236 236 239 242 244 246 248 247 246 247 251 254 258 263 266 266 266 267 264
33 41 50 57 75 321 347 332 291 263 258 255 248 238 231 237 245 246 244 244 243 235 222 221 225 222 218 219 220 217 220 224 226 224 223 220 216 214 210 204 201 202 204 204 202 203 208 212 215 216 215 214 213 214 218 222 222 223 227 228 227 227 226 227 229 231 232 234 236 237 238 241 244 246 246 245 244 246 250 254 258 262 265 265 266 268 265
25 28 24 8 282 270 296 302 285 272 269 264 257 249 245 254 260 256 249 247 244 237 226 221 224 222 218 216 216 216 219 223 226 229 229 223 219 216 208 200 200 203 203 203 203 204 208 213 217 218 217 216 215 218 222 226 226 227 228 228 229 228 227 227 229 230 231 233 236 236 237 240 243 245 245 243 243 244 248 252 257 261 264 265 265 266 265
14 20 20 8 328 285 280 279 277 276 274 272 273 271 262 261 265 264 259 258 255 248 239 231 226 223 221 219 217 217 222 226 227 230 232 227 219 213 206 201 203 205 204 204 206 206 208 212 214 215 217 220 220 222 226 229 229 229 230 232 234 233 231 230 229 229 230 233 235 236 237 239 242 244 243 242 241 244 247 251 256 259 262 264 265 265 264
4 12 17 17 8 335 323 318 300 290 288 283 282 284 275 261 258 259 258 259 258 253 248 240 230 225 223 223 223 226 233 237 233 231 232 230 220 212 207 206 207 207 205 206 208 208 209 210 211 213 219 224 226 227 228 230 231 233 235 239 240 238 236 234 231 230 231 233 235 235 236 238 240 242 241 240 240 242 246 250 254 258 260 263 266 266 263
360 1 2 3 4 360 357 358 357 349 341 319 290 284 280 266 257 255 251 249 247 246 245 242 235 228 223 220 224 231 237 240 238 232 230 229 222 215 211 210 210 209 207 206 208 209 209 210 213 217 222 227 230 230 229 231 233 235 238 244 244 241 238 236 233 231 232 233 235 235 235 236 238 240 240 239 238 241 245 249 253 258 262 265 265 264 261
359 357 355 356 0 1 357 356 0 358 351 340 316 300 296 283 262 251 246 243 240 238 238 237 234 228 223 221 225 228 231 235 238 235 231 228 222 217 214 213 213 211 209 207 209 210 211 215 221 225 226 228 230 231 229 231 234 236 243 249 245 239 239 238 234 233 234 234 234 235 235 236 238 240 241 240 239 241 245 250 254 260 265 267 265 264 264
359 356 353 354 2 3 355 351 353 349 342 338 328 319 320 313 277 249 243 242 240 238 233 231 233 232 229 229 231 230 228 228 232 236 234 230 224 219 216 215 214 214 212 211 212 212 214 219 225 227 227 227 230 232 234 236 238 240 248 251 244 238 240 238 234 235 237 236 234 234 235 237 238 242 244 243 241 242 246 252 256 261 266 269 268 267 266
2 359 352 354 3 3 354 348 348 344 341 339 333 332 338 338 304 259 247 240 239 241 236 230 233 239 239 236 234 234 233 226 223 227 231 231 230 228 223 218 217 217 216 216 216 216 218 221 223 225 226 226 228 233 237 240 242 244 248 249 244 241 240 236 233 235 237 236 234 233 235 237 239 243 245 244 243 242 245 251 257 261 266 268 268 268 266
3 360 353 353 356 355 349 346 347 349 347 342 339 347 354 346 304 279 258 241 238 243 244 236 232 234 241 243 239 238 237 230 221 218 219 225 232 236 232 225 222 221 220 219 219 220 221 223 224 224 224 224 226 230 234 238 242 245 249 250 247 244 240 234 231 233 235 235 234 233 234 236 239 242 243 243 243 243 244 249 255 259 264 267 269 270 267
356 355 351 346 342 342 344 344 347 352 351 347 348 354 353 329 304 288 261 243 239 242 244 241 231 225 229 239 242 242 239 232 227 224 219 218 223 230 230 228 227 226 224 222 222 222 223 226 226 224 222 223 225 228 232 237 242 245 248 249 247 243 239 234 231 233 235 235 234 234 235 237 239 241 241 241 243 245 247 250 253 256 263 268 270 269 264
346 344 340 333 333 339 344 346 349 351 351 350 353 355 348 328 314 292 266 253 241 236 238 236 228 223 227 234 236 239 238 234 235 240 233 219 219 226 230 230 232 230 227 225 224 223 224 226 228 227 226 226 227 229 234 239 243 245 246 244 239 237 237 235 233 234 236 237 237 236 235 237 238 240 240 240 242 246 249 251 253 257 262 266 267 264 260
336 335 331 331 336 345 348 346 347 350 352 353 354 354 345 323 311 301 285 269 249 238 236 232 228 229 233 237 235 231 234 239 243 249 248 236 232 238 240 240 238 232 228 228 227 225 224 225 227 228 229 229 231 233 235 238 243 246 244 238 233 233 237 238 238 240 242 243 243 240 238 237 238 239 240 240 241 245 249 251 253 255 258 261 263 261 258
319 325 331 334 338 346 352 349 346 348 353 355 351 350 345 310 296 299 285 267 256 249 243 236 234 234 233 235 233 222 223 236 245 252 255 252 249 252 253 250 244 238 234 233 230 227 226 226 227 229 230 232 235 236 237 239 242 242 238 234 233 236 238 239 241 246 251 252 249 245 243 243 242 242 242 243 243 245 248 251 253 254 257 260 261 257 256
312 320 333 341 341 342 344 345 344 347 354 357 351 346 343 319 286 267 262 261 255 251 247 238 229 226 226 229 228 220 218 227 235 243 248 245 244 254 266 264 253 242 239 240 237 233 230 229 229 230 231 234 236 238 239 239 238 236 233 234 237 238 239 239 240 245 253 258 256 251 248 247 245 244 245 246 246 246 247 250 254 256 257 258 256 253 253
316 319 324 332 336 329 325 332 339 342 349 355 355 351 356 359 342 249 237 244 233 242 247 237 219 216 220 224 225 220 217 220 223 230 235 234 236 248 264 268 261 249 244 245 242 236 232 232 232 232 233 234 235 236 236 234 233 232 233 237 239 241 243 244 245 247 252 257 257 253 249 247 246 245 244 244 244 244 245 248 251 255 257 256 252 251 254
317 318 316 316 319 308 303 322 337 338 342 352 355 357 10 17 16 352 276 119 132 219 243 238 227 221 219 221 224 221 215 214 215 221 229 234 240 249 255 258 256 247 241 239 233 226 225 227 228 227 227 228 228 227 227 228 230 234 238 241 244 245 246 247 249 250 252 255 256 253 247 244 243 242 239 237 237 239 242 244 248 253 257 256 254 256 263
321 324 320 317 319 314 308 326 338 335 339 349 350 355 14 18 3 335 330 336 118 177 228 229 227 226 223 221 221 219 216 212 212 216 225 232 239 246 248 246 244 240 234 227 219 212 212 216 217 216 215 217 219 221 223 227 231 236 238 240 241 242 243 245 246 248 250 253 255 253 246 240 237 235 231 228 230 234 237 242 246 252 257 258 258 261 266
319 321 316 313 315 313 310 320 333 334 337 342 342 355 14 11 348 330 345 346 339 239 201 196 200 213 219 217 214 214 217 218 215 216 222 229 235 242 244 242 241 237 227 217 209 205 207 211 212 211 211 214 218 220 223 226 229 231 232 234 237 239 243 246 247 250 253 254 254 254 250 242 234 230 226 223 225 230 233 238 243 249 254 257 259 260 261
300 302 305 305 306 309 309 312 322 332 336 335 335 353 12 4 347 345 4 360 347 343 227 197 190 197 206 210 210 210 215 223 223 219 220 225 230 237 242 242 240 233 223 216 214 214 214 212 213 214 216 218 220 223 224 225 226 227 231 236 239 241 244 245 248 253 257 256 254 253 249 240 232 226 222 220 223 228 232 236 240 244 248 251 253 255 258
290 290 296 299 300 303 305 304 308 323 330 328 330 347 2 357 345 353 15 16 7 27 79 161 189 199 202 203 203 200 200 208 216 218 217 219 222 227 234 238 237 232 227 227 228 227 223 220 219 220 224 226 227 229 232 230 229 233 237 241 244 246 246 246 249 252 255 257 257 252 243 234 227 221 218 219 223 229 233 237 240 242 245 248 251 254 258
278 279 282 289 296 302 303 297 294 304 313 314 320 336 349 348 340 345 10 27 27 34 63 86 115 174 193 199 208 211 209 209 213 217 217 215 214 217 222 227 231 233 233 235 236 234 232 231 228 229 236 240 237 236 238 237 238 241 244 247 250 252 252 253 254 254 255 257 256 248 238 230 222 216 215 220 225 231 236 239 241 243 247 250 253 256 259
276 279 281 281 283 289 293 292 291 295 298 297 300 311 321 326 326 329 345 11 27 37 43 38 44 111 166 199 223 227 224 219 217 218 215 211 210 214 219 224 232 239 242 244 243 242 241 240 239 240 245 249 248 247 247 246 246 249 253 254 255 257 260 261 258 254 253 252 246 236 228 222 216 212 215 221 227 233 238 239 241 244 248 251 254 258 260
277 278 282 284 282 281 285 288 289 292 291 287 283 287 297 305 309 314 323 331 341 356 9 9 13 29 163 237 241 234 225 218 213 211 209 206 205 210 219 226 231 236 240 243 244 244 242 241 242 243 244 246 248 249 248 247 249 254 256 255 252 254 259 260 256 251 246 239 230 224 220 217 214 215 219 225 230 236 239 240 242 246 249 252 255 258 259
286 278 277 280 279 278 281 284 286 288 288 284 278 278 286 295 300 305 311 313 312 319 331 342 344 343 335 270 233 221 214 210 209 209 211 210 205 204 211 220 226 229 231 233 236 239 239 238 238 239 240 242 244 245 246 247 250 253 254 252 250 251 253 253 251 246 238 227 222 221 221 220 219 221 225 229 233 236 239 242 245 249 251 253 255 257 259
300 289 279 275 272 271 273 276 282 287 287 284 280 277 278 284 291 297 301 304 304 303 300 290 287 300 320 312 246 220 210 207 206 208 213 217 215 210 209 212 218 223 226 228 231 235 238 239 239 240 241 242 242 243 245 246 248 250 254 254 251 247 246 245 241 236 229 224 222 222 223 223 223 224 227 231 235 239 242 245 247 249 250 252 254 256 260
297 298 289 279 272 268 268 270 277 283 283 281 280 278 277 281 289 290 288 289 293 292 285 276 275 279 282 284 275 253 228 216 211 209 211 215 218 217 214 212 214 218 222 226 231 237 242 242 240 240 241 242 243 244 244 242 243 246 246 240 234 232 233 233 229 224 222 222 222 221 222 224 226 226 229 233 237 240 243 245 247 248 250 253 255 258 262
276 287 290 287 279 271 268 269 273 277 276 274 274 274 274 278 287 287 278 275 281 285 280 268 262 262 265 270 273 269 257 243 232 225 219 216 218 221 221 221 223 227 228 226 227 232 239 241 238 235 234 232 236 243 243 237 235 234 226 215 212 216 219 219 218 218 219 220 219 219 222 224 225 228 231 234 237 240 243 245 248 250 253 256 259 261 264
260 265 274 281 282 278 273 271 273 275 273 269 268 269 268 265 266 270 269 267 268 272 271 264 255 253 257 263 266 264 258 250 244 241 236 228 224 224 225 226 228 231 232 230 226 226 229 231 230 229 227 222 221 228 230 225 224 226 222 212 207 208 208 209 213 218 222 221 220 221 224 227 229 232 234 236 239 242 245 248 251 254 256 259 261 263 266
258 262 266 270 274 278 275 271 270 272 270 266 263 264 266 265 265 266 266 262 257 256 259 259 256 252 252 255 256 255 252 249 246 245 244 243 239 235 233 231 231 230 230 230 230 229 228 227 224 222 222 220 218 219 221 221 222 227 228 225 220 215 214 217 221 225 225 225 225 227 230 232 234 236 238 239 242 244 247 250 253 255 257 259 261 263 266
259 262 265 266 269 274 276 272 269 269 269 266 262 260 261 264 266 266 265 261 256 252 250 251 252 252 251 252 253 251 248 246 244 242 241 242 244 246 244 240 237 233 230 228 228 227 227 226 225 224 225 225 225 226 227 228 229 228 228 227 228 229 228 227 226 225 225 226 228 230 232 233 235 237 239 241 243 246 248 250 252 254 256 259 261 264 268
263 263 264 264 264 266 270 271 269 267 266 265 263 261 260 259 261 263 265 262 258 255 252 249 248 249 249 249 249 249 247 244 242 241 240 239 239 242 245 245 242 239 235 231 227 225 222 222 225 228 230 231 232 232 232 232 232 233 233 231 230 232 232 230 227 226 227 229 231 233 234 235 237 238 240 242 244 246 247 249 251 253 257 260 264 268 270
265 266 266 264 263 262 264 266 265 262 259 258 260 263 265 264 263 265 266 263 261 261 261 256 250 248 248 247 247 247 247 245 242 241 241 241 240 240 242 243 243 244 245 243 239 233 228 224 224 226 228 229 230 230 231 230 229 230 232 233 229 226 227 229 228 228 229 231 234 236 238 239 240 241 243 244 246 248 249 250 253 256 259 262 265 267 268
267 267 267 266 264 262 260 261 261 258 254 251 250 254 259 263 265 267 268 266 264 265 267 263 257 252 250 249 248 247 247 247 245 243 242 242 242 242 243 242 242 243 245 246 245 242 239 235 232 231 231 232 230 229 230 231 230 230 232 233 232 230 230 231 230 230 231 233 235 237 239 241 242 244 245 247 249 251 252 254 256 258 259 261 263 264 265
271 269 268 267 265 263 260 258 257 255 253 251 249 249 253 259 264 268 270 270 268 266 266 266 264 259 256 254 253 252 251 250 250 248 245 244 243 243 243 243 242 243 243 244 245 245 245 245 245 244 245 246 244 241 240 240 241 241 240 240 240 240 240 240 239 238 239 240 241 241 243 244 246 247 249 251 253 255 257 258 259 260 260 261 262 263 265
273 272 270 269 267 266 264 260 257 255 253 253 252 252 253 257 262 266 269 270 270 268 267 267 267 265 262 260 258 256 255 254 253 253 251 249 247 245 243 243 242 243 244 245 245 247 249 251 252 253 254 253 253 252 252 251 251 250 249 247 246 246 246 247 248 248 249 249 250 251 251 252 253 254 255 256 258 259 260 261 261 261 261 261 262 263 265
275 273 272 271 269 268 266 263 261 258 255 254 254 255 255 255 257 261 265 266 265 265 266 267 267 267 264 261 259 258 257 257 256 255 254 254 252 250 248 246 245 245 246 247 248 249 251 253 254 255 255 255 254 254 255 255 255 254 253 251 250 249 249 249 249 250 251 252 253 254 254 255 255 255 255 256 257 258 258 259 259 260 260 261 263 265 266
274 273 272 271 269 268 266 264 262 259 256 254 253 254 255 254 252 253 258 261 261 260 260 261 263 265 264 262 259 257 255 255 256 256 256 256 255 254 253 251 250 249 250 251 252 253 253 254 255 256 256 256 256 255 255 255 255 255 254 253 253 253 252 251 249 249 249 250 251 251 251 252 252 252 253 254 255 255 256 257 258 259 261 262 263 265 266
270 270 270 269 268 267 265 263 260 257 254 252 251 250 251 251 249 248 251 256 258 259 259 260 261 262 263 263 262 260 257 254 253 253 254 255 256 257 257 256 254 253 253 253 254 255 255 255 255 255 256 257 257 257 257 256 255 254 253 253 253 253 253 252 250 247 246 247 248 249 250 250 251 252 253 254 254 255 256 257 258 259 261 262 262 263 264
264 263 263 264 264 264 264 263 259 254 250 249 248 247 247 247 244 243 246 252 256 257 258 259 260 261 262 263 263 263 263 261 257 255 253 253 254 256 257 258 258 257 257 256 256 256 256 256 256 256 256 257 258 258 258 258 257 256 255 254 254 253 253 252 251 248 245 245 246 247 248 249 251 252 254 255 255 256 257 258 259 260 260 261 262 263 264
263 262 260 259 259 259 259 260 259 255 249 246 245 246 246 245 242 240 242 249 255 257 258 259 261 262 262 263 263 262 262 262 262 260 258 256 255 255 256 257 258 259 259 259 258 257 257 256 256 256 256 257 258 259 259 259 259 258 257 257 256 256 255 255 254 252 250 248 248 249 250 251 252 253 254 254 255 257 257 258 259 259 261 262 264 265 266
265 264 263 260 258 256 255 255 256 255 251 246 244 244 246 245 243 239 239 243 252 260 262 261 261 260 260 260 262 263 262 262 261 261 261 261 260 259 258 258 258 259 260 261 261 260 259 257 256 256 256 256 257 258 258 259 259 259 259 258 258 258 257 258 257 257 255 254 253 253 254 255 255 255 255 256 256 257 258 258 259 261 263 265 266 267 268
265 266 266 264 262 258 254 252 252 253 251 248 245 244 244 245 245 242 239 239 246 256 262 262 261 260 259 258 258 259 260 261 262 262 262 263 263 262 262 261 260 260 260 260 261 261 261 260 259 257 256 255 255 256 256 256 256 257 257 257 257 257 257 258 258 259 259 259 258 257 257 256 255 255 255 255 255 256 257 258 260 261 263 265 266 267 268
264 264 265 265 264 262 257 252 250 249 249 248 246 244 243 244 245 244 241 238 238 243 251 257 259 260 260 259 258 257 257 258 259 260 262 263 263 263 262 262 262 261 260 259 259 260 262 262 261 260 258 256 255 255 255 255 254 254 254 254 255 255 256 257 258 259 260 261 261 261 260 259 258 257 256 256 257 258 260 261 262 263 264 265 267 268 269
263 262 262 263 263 263 260 255 250 247 246 246 244 243 243 243 243 243 242 240 238 239 245 254 258 258 257 258 258 257 256 256 256 257 259 260 261 261 261 261 261 261 259 258 257 258 259 261 262 262 261 259 258 256 256 256 256 255 255 255 255 255 256 257 258 259 260 260 261 260 261 261 261 261 261 261 262 263 264 265 266 266 268 269 270 270 271
262 261 261 261 261 261 260 257 253 248 246 245 244 242 242 241 241 240 241 240 238 238 240 247 252 254 255 256 256 257 257 257 257 257 257 258 258 258 259 259 260 260 259 257 255 255 255 256 258 258 258 258 257 257 257 256 256 257 257 257 257 257 257 258 258 259 259 259 260 260 261 262 263 263 263 263 263 264 264 265 266 267 267 268 269 269 269
260 259 259 259 259 259 258 257 254 250 247 245 244 242 241 241 240 239 238 239 239 237 236 237 242 247 251 254 256 256 257 257 257 258 258 259 259 259 258 258 258 259 259 257 254 253 251 251 251 252 253 253 253 254 254 255 255 255 256 256 256 256 257 257 258 258 258 259 259 259 259 259 259 259 260 260 260 261 262 263 263 263 263 263 264 265 265